Terminal Aerodrome Forecast
Issued by NWS

Home | Current Version | Previous Version | Text Only | Print | Product List | Glossary On
Versions: 1 2 3 4 5 6 7 8 9 10 11 12 13 14 15 16 17 18 19 20 21 22 23 24 25 26 27
000
FTAK31 PAJN 162320
TAFAYA
TAF
PAYA 162320Z 1700/1724 24020G30KT 4SM SHRA BR OVC015 WS020/25040KT
     FM170300 24014G22KT 6SM -SHRA BR OVC025
     FM170900 22007KT P6SM VCSH OVC025
     FM171500 VRB05KT P6SM VCSH BKN040
      AMD LTD TO CLD VIS AND WIND 1701/1709=

USA.gov is the U.S. government's official web portal to all federal, state and local government web resources and services.